Karlovy Vary, Czech Republic

5:50 AM CEST on May 30, 2017 (GMT +0200)
Karlovy Vary

Weather History for LKKV - November, 2013

Change the Weather History Date:

Thursday, November 21, 2013

  Actual Average (EDQM) Record (EDQM)
Temperature  
Mean Temperature 34 °F -  
Max Temperature 35 °F 36 °F 51 °F (2011)
Min Temperature 32 °F 30 °F 17 °F (1998)
Degree Days  
Heating Degree Days 32    
Moisture  
Dew Point 32 °F    
Average Humidity 94    
Maximum Humidity 100    
Minimum Humidity 87    
Precipitation  
Precipitation 0.00 in - - ()
Sea Level Pressure  
Sea Level Pressure 29.51 in    
Wind  
Wind Speed 7 mph ()    
Max Wind Speed 13 mph    
Max Gust Speed -    
Visibility 3.8 miles    
Events Snow    
Averages and records for this station are not official NWS values.
T = Trace of Precipitation, MM = Missing Value Source: Averaged Metar Reports

Daily Weather History Graph

Daily Weather History Graph

Search for Another Location

Airport or City:

Trip Planner

Search our weather history database for the weather conditions in past years. The results will help you decide how hot, cold, wet, or windy it might be!

Date:

Astronomy

Nov. 21, 2013 Rise Set
Actual Time 7:31 AM CET 4:16 PM CET
Civil Twilight 6:54 AM CET 4:53 PM CET
Nautical Twilight 6:14 AM CET 5:33 PM CET
Astronomical Twilight 5:36 AM CET 6:11 PM CET
Moon 7:40 PM CET (11/21) 10:25 AM CET (11/21)
Length of Visible Light 9h 58m
Length of Day
8h 45m
Waning Gibbous, 87% of the Moon is Illuminated
Nov 21
Waning Gibbous
Nov 25
Last Quarter
Dec 3
New
Dec 9
First Quarter
Dec 17
Full

Hourly Weather History & Observations

Time (CET) Temp. Windchill Dew Point Humidity Pressure Visibility Wind Dir Wind Speed Gust Speed Precip Events Conditions
12:00 AM 33.8 °F - 32.0 °F 93% 29.56 in 6.2 mi Variable 1.2 mph - N/A   Overcast
1:00 AM 33.8 °F - 32.0 °F 93% 29.56 in 6.2 mi Variable 1.2 mph - N/A   Overcast
2:00 AM 33.8 °F - 30.2 °F 87% 29.56 in 6.2 mi East 2.3 mph - N/A   Overcast
3:00 AM 33.8 °F - 30.2 °F 87% 29.56 in 6.2 mi Calm Calm - N/A   Overcast
4:00 AM 33.8 °F 30.8 °F 30.2 °F 87% 29.56 in 6.2 mi ESE 3.5 mph - N/A   Overcast
5:00 AM 32.0 °F 25.6 °F 30.2 °F 93% 29.53 in 6.2 mi East 6.9 mph - N/A   Mostly Cloudy
6:00 AM 32.0 °F 25.6 °F 30.2 °F 93% 29.53 in 6.2 mi East 6.9 mph - N/A   Mostly Cloudy
7:00 AM 32.0 °F 25.6 °F 28.4 °F 87% 29.53 in 6.2 mi East 6.9 mph - N/A   Mostly Cloudy
7:30 AM 32.0 °F 24.8 °F 30.2 °F 93% 29.53 in 6.2 mi East 8.1 mph - N/A   Overcast
8:00 AM 32.0 °F 24.2 °F 30.2 °F 93% 29.50 in 6.2 mi East 9.2 mph - N/A   Overcast
8:30 AM 32.0 °F 22.5 °F 30.2 °F 93% 29.50 in 6.2 mi East 12.7 mph - N/A   Overcast
9:00 AM 32.0 °F 23.6 °F 30.2 °F 93% 29.50 in 6.2 mi East 10.4 mph - N/A   Overcast
9:30 AM 32.0 °F 24.2 °F 30.2 °F 93% 29.53 in 6.2 mi East 9.2 mph - N/A   Overcast
9:48 AM 32.0 °F 23.6 °F 30.2 °F 93% 29.50 in 6.2 mi East 10.4 mph - N/A Snow Light Snow
10:00 AM 32.0 °F 23.6 °F 30.2 °F 93% 29.50 in 2.8 mi East 10.4 mph - N/A Snow Light Snow
10:10 AM 32.0 °F 25.6 °F 30.2 °F 93% 29.50 in 3.7 mi East 6.9 mph - N/A Snow Light Snow
10:30 AM 32.0 °F 25.6 °F 30.2 °F 93% 29.53 in 6.2 mi East 6.9 mph - N/A Snow Light Snow
11:00 AM 33.8 °F 24.8 °F 30.2 °F 87% 29.50 in 6.2 mi East 12.7 mph - N/A Snow Light Snow Grains
11:30 AM 32.0 °F 23.6 °F 30.2 °F 93% 29.50 in 5.0 mi East 10.4 mph - N/A Snow Light Snow Grains
12:00 PM 33.8 °F 24.8 °F 32.0 °F 93% 29.47 in 3.7 mi East 12.7 mph - N/A   Overcast
12:30 PM 33.8 °F 27.0 °F 32.0 °F 93% 29.47 in 5.0 mi ENE 8.1 mph - N/A   Overcast
1:00 PM 32.0 °F 23.6 °F 30.2 °F 93% 29.47 in 3.7 mi ENE 10.4 mph - N/A   Overcast
1:22 PM 32.0 °F 23.0 °F 30.2 °F 93% 29.47 in 1.9 mi ENE 11.5 mph - N/A   Overcast
1:30 PM 32.0 °F 23.0 °F 30.2 °F 93% 29.47 in 1.9 mi ENE 11.5 mph - N/A   Overcast
2:00 PM 32.0 °F 22.5 °F 32.0 °F 100% 29.47 in 1.9 mi ENE 12.7 mph - N/A   Overcast
2:30 PM 32.0 °F 22.5 °F 32.0 °F 100% 29.47 in 1.9 mi ENE 12.7 mph - N/A   Overcast
3:00 PM 32.0 °F 23.6 °F 32.0 °F 100% 29.47 in 0.9 mi ENE 10.4 mph - N/A   Overcast
3:30 PM 33.8 °F 25.8 °F 32.0 °F 93% 29.47 in 1.2 mi ENE 10.4 mph - N/A   Overcast
4:00 PM 33.8 °F 27.0 °F 32.0 °F 93% 29.50 in 0.9 mi ENE 8.1 mph - N/A   Overcast
4:30 PM 33.8 °F 25.8 °F 32.0 °F 93% 29.47 in 0.9 mi ENE 10.4 mph - N/A   Overcast
5:00 PM 33.8 °F 25.3 °F 32.0 °F 93% 29.50 in 1.9 mi ENE 11.5 mph - N/A   Overcast
5:01 PM 33.8 °F 25.8 °F 32.0 °F 93% 29.50 in 1.9 mi ENE 10.4 mph - N/A   Light Drizzle
5:30 PM 33.8 °F 26.4 °F 33.8 °F 100% 29.50 in 1.9 mi ENE 9.2 mph - N/A   Light Drizzle
6:00 PM 33.8 °F 26.4 °F 33.8 °F 100% 29.50 in 1.9 mi ENE 9.2 mph - N/A   Light Drizzle
6:30 PM 33.8 °F 25.8 °F 33.8 °F 100% 29.50 in 0.9 mi ENE 10.4 mph - N/A   Overcast
7:00 PM 35.6 °F 28.0 °F 33.8 °F 93% 29.50 in 1.2 mi ENE 10.4 mph - N/A   Overcast
7:30 PM 35.6 °F 28.0 °F 33.8 °F 93% 29.50 in - ENE 10.4 mph - N/A   Overcast
8:00 PM 35.6 °F 27.5 °F 35.6 °F 100% 29.50 in 1.2 mi ENE 11.5 mph - N/A   Overcast
8:25 PM 35.6 °F 28.0 °F 35.6 °F 100% 29.50 in 1.2 mi ENE 10.4 mph - N/A   Light Drizzle
9:00 PM 35.6 °F 28.6 °F 35.6 °F 100% 29.50 in 1.9 mi ENE 9.2 mph - N/A   Light Drizzle
10:00 PM 35.6 °F 29.2 °F 35.6 °F 100% 29.53 in 3.1 mi ENE 8.1 mph - N/A   Drizzle
11:00 PM 35.6 °F 29.2 °F 35.6 °F 100% 29.53 in 3.7 mi ENE 8.1 mph - N/A   Mostly Cloudy